Time,TemperatureF,DewpointF,PressureIn,WindDirection,WindDirectionDegrees,WindSpeedMPH,WindSpeedGustMPH,Humidity,HourlyPrecipIn,Conditions,Clouds,dailyrainin,SoftwareType,DateUTC
2013-11-17 00:23:00,49.0,46.0,29.28,South,180,3.0,3.0,89,0.00,,,0.16,,2013-11-17 05:23:00,
2013-11-17 00:44:00,49.0,46.0,29.28,WSW,246,1.0,7.0,89,0.00,,,0.16,,2013-11-17 05:44:00,
2013-11-17 00:53:00,49.0,46.0,29.28,WSW,246,1.0,7.0,89,0.00,,,0.16,,2013-11-17 05:53:00,
2013-11-17 01:23:00,49.0,46.0,29.28,SSW,202,1.0,5.0,89,0.00,,,0.16,,2013-11-17 06:23:00,
2013-11-17 01:42:00,49.0,46.0,29.28,SSE,158,2.0,3.0,89,0.00,,,0.16,,2013-11-17 06:42:00,
2013-11-17 01:52:00,49.0,46.0,29.28,WNW,292,3.0,6.0,89,0.00,,,0.16,,2013-11-17 06:52:00,
2013-11-17 02:22:00,49.0,46.0,29.28,WSW,248,0.0,7.0,89,0.00,,,0.16,,2013-11-17 07:22:00,
2013-11-17 02:42:00,49.0,46.0,29.28,SE,144,2.0,2.0,90,0.00,,,0.16,,2013-11-17 07:42:00,
2013-11-17 02:53:00,49.0,46.0,29.28,SE,144,2.0,2.0,90,0.00,,,0.16,,2013-11-17 07:53:00,
2013-11-17 03:22:00,50.0,47.0,29.28,SE,135,2.0,2.0,89,0.00,,,0.16,,2013-11-17 08:22:00,
2013-11-17 03:52:00,49.0,46.0,29.28,SE,135,1.0,1.0,89,0.00,,,0.16,,2013-11-17 08:52:00,
2013-11-17 04:22:00,49.0,46.0,29.28,ESE,112,0.0,3.0,89,0.23,,,0.39,,2013-11-17 09:22:00,
2013-11-17 04:42:00,48.0,45.0,29.28,SE,146,2.0,2.0,89,0.23,,,0.39,,2013-11-17 09:42:00,
2013-11-17 04:54:00,48.0,45.0,29.28,SE,145,2.0,5.0,90,0.23,,,0.39,,2013-11-17 09:54:00,
2013-11-17 05:23:00,48.0,45.0,29.28,SW,225,0.0,5.0,90,0.23,,,0.39,,2013-11-17 10:23:00,
2013-11-17 05:53:00,48.0,45.0,29.28,ENE,75,1.0,7.0,89,0.00,,,0.39,,2013-11-17 10:53:00,
2013-11-17 06:12:00,47.0,44.0,29.28,SSE,158,2.0,3.0,89,0.00,,,0.39,,2013-11-17 11:12:00,
2013-11-17 06:22:00,47.0,44.0,29.28,SSE,158,2.0,3.0,89,0.00,,,0.39,,2013-11-17 11:22:00,
2013-11-17 06:52:00,47.0,44.0,29.29,SE,145,2.0,3.0,88,0.00,,,0.39,,2013-11-17 11:52:00,
2013-11-17 07:22:00,46.0,43.0,29.29,SSE,168,2.0,2.0,88,0.00,,,0.39,,2013-11-17 12:22:00,
2013-11-17 07:42:00,46.0,43.0,29.29,South,179,2.0,3.0,88,0.00,,,0.39,,2013-11-17 12:42:00,
2013-11-17 07:52:00,45.0,42.0,29.30,South,171,2.0,3.0,88,0.00,,,0.39,,2013-11-17 12:52:00,
2013-11-17 08:22:00,45.0,42.0,29.30,SSE,153,1.0,1.0,89,0.00,,,0.39,,2013-11-17 13:22:00,
2013-11-17 08:42:00,44.0,41.0,29.30,SSE,158,0.0,1.0,89,0.00,,,0.39,,2013-11-17 13:42:00,
2013-11-17 08:52:00,45.0,42.0,29.29,SSE,158,0.0,0.0,89,0.00,,,0.39,,2013-11-17 13:52:00,
2013-11-17 09:21:00,45.0,42.0,29.29,SE,135,0.0,1.0,89,0.00,,,0.39,,2013-11-17 14:21:00,
2013-11-17 09:42:00,45.0,42.0,29.28,SSE,158,0.0,1.0,90,0.00,,,0.39,,2013-11-17 14:42:00,
2013-11-17 09:52:00,45.0,42.0,29.27,SSE,166,29.0,49.0,90,0.00,,,0.39,,2013-11-17 14:52:00,
2013-11-17 10:22:00,46.0,43.0,29.27,SSE,158,1.0,1.0,90,0.00,,,0.39,,2013-11-17 15:22:00,
2013-11-17 10:54:00,47.0,44.0,29.26,SSE,158,0.0,1.0,90,0.00,,,0.39,,2013-11-17 15:54:00,
2013-11-17 11:23:00,49.0,46.0,29.26,SSE,158,0.0,0.0,91,0.00,,,0.39,,2013-11-17 16:23:00,
2013-11-17 11:42:00,49.0,46.0,29.26,ESE,116,1.0,1.0,90,0.00,,,0.39,,2013-11-17 16:42:00,
2013-11-17 11:53:00,49.0,46.0,29.26,ESE,116,1.0,1.0,90,0.00,,,0.39,,2013-11-17 16:53:00,
2013-11-17 12:22:00,50.0,47.0,29.22,ENE,68,0.0,0.0,90,0.00,,,0.39,,2013-11-17 17:22:00,
2013-11-17 12:43:00,50.0,47.0,29.21,East,90,0.0,1.0,90,0.00,,,0.39,,2013-11-17 17:43:00,
2013-11-17 12:52:00,50.0,47.0,29.18,SE,135,0.0,1.0,90,0.00,,,0.39,,2013-11-17 17:52:00,
2013-11-17 13:23:00,50.0,47.0,29.18,WSW,248,42.0,51.0,90,0.00,,,0.39,,2013-11-17 18:23:00,
2013-11-17 13:42:00,50.0,47.0,29.18,South,180,0.0,25.0,90,0.00,,,0.39,,2013-11-17 18:42:00,
2013-11-17 13:52:00,51.0,48.0,29.18,SSE,158,0.0,0.0,90,0.00,,,0.39,,2013-11-17 18:52:00,
2013-11-17 14:22:00,52.0,49.0,29.18,NW,315,0.0,1.0,89,0.00,,,0.39,,2013-11-17 19:22:00,
2013-11-17 14:32:00,52.0,49.0,29.18,NW,315,0.0,1.0,89,0.00,,,0.39,,2013-11-17 19:32:00,
2013-11-17 14:42:00,52.0,49.0,29.18,NW,315,0.0,1.0,89,0.00,,,0.39,,2013-11-17 19:42:00,
2013-11-17 14:52:00,52.0,49.0,29.18,NW,315,0.0,1.0,89,0.00,,,0.39,,2013-11-17 19:52:00,
2013-11-17 15:22:00,52.0,48.0,29.13,NNW,338,2.0,2.0,85,0.00,,,0.39,,2013-11-17 20:22:00,
2013-11-17 15:43:00,51.0,46.0,29.12,North,0,1.0,2.0,84,0.00,,,0.39,,2013-11-17 20:43:00,
2013-11-17 15:52:00,50.0,45.0,29.11,NNW,335,2.0,2.0,84,0.00,,,0.39,,2013-11-17 20:52:00,
2013-11-17 16:22:00,48.0,43.0,29.14,West,276,2.0,3.0,82,0.00,,,0.39,,2013-11-17 21:22:00,
2013-11-17 16:44:00,47.0,42.0,29.14,WNW,292,1.0,2.0,83,0.00,,,0.39,,2013-11-17 21:44:00,
2013-11-17 16:55:00,47.0,42.0,29.13,NW,315,1.0,2.0,83,0.00,,,0.39,,2013-11-17 21:55:00,
2013-11-17 17:24:00,47.0,42.0,29.13,West,270,3.0,3.0,83,0.00,,,0.39,,2013-11-17 22:24:00,
2013-11-17 17:32:00,46.0,41.0,29.14,NW,315,1.0,6.0,81,0.00,,,0.39,,2013-11-17 22:32:00,
2013-11-17 17:43:00,47.0,42.0,29.13,NNW,335,4.0,6.0,82,0.00,,,0.39,,2013-11-17 22:43:00,
2013-11-17 17:53:00,46.0,41.0,29.14,NW,315,1.0,6.0,81,0.00,,,0.39,,2013-11-17 22:53:00,
2013-11-17 18:03:00,46.0,41.0,29.14,NW,315,1.0,6.0,81,0.00,,,0.39,,2013-11-17 23:03:00,
2013-11-17 18:12:00,46.0,41.0,29.14,NW,315,1.0,6.0,81,0.00,,,0.39,,2013-11-17 23:12:00,
2013-11-17 18:23:00,46.0,41.0,29.14,NW,315,1.0,6.0,81,0.00,,,0.39,,2013-11-17 23:23:00,
2013-11-17 20:52:00,43.0,38.0,29.14,WNW,297,10.0,12.0,83,0.00,,,0.39,,2013-11-18 01:52:00,
2013-11-17 21:21:00,42.0,37.0,29.16,WNW,289,8.0,16.0,83,0.00,,,0.39,,2013-11-18 02:21:00,
2013-11-17 21:32:00,42.0,37.0,29.16,WNW,289,8.0,16.0,83,0.00,,,0.39,,2013-11-18 02:32:00,
2013-11-17 21:52:00,40.0,36.0,29.16,West,266,6.0,12.0,84,0.00,,,0.39,,2013-11-18 02:52:00,
2013-11-17 22:22:00,39.0,35.0,29.17,West,270,6.0,10.0,85,0.00,,,0.39,,2013-11-18 03:22:00,
2013-11-17 22:44:00,38.0,34.0,29.18,WNW,292,14.0,16.0,85,0.00,,,0.39,,2013-11-18 03:44:00,
2013-11-17 22:54:00,38.0,34.0,29.18,NW,311,6.0,16.0,85,0.00,,,0.39,,2013-11-18 03:54:00,
2013-11-17 23:13:00,37.0,33.0,29.19,WNW,292,10.0,10.0,85,0.00,,,0.39,,2013-11-18 04:13:00,
2013-11-17 23:23:00,37.0,33.0,29.20,WNW,283,10.0,12.0,85,0.00,,,0.39,,2013-11-18 04:23:00,
2013-11-17 23:32:00,37.0,32.0,29.21,NW,315,9.0,9.0,83,0.00,,,0.39,,2013-11-18 04:32:00,
2013-11-17 23:52:00,37.0,32.0,29.21,NW,315,9.0,9.0,83,0.00,,,0.39,,2013-11-18 04:52:00,